GEFSMA_500_meanwind_336.txt.gz
Wind_Speed
9 9 8 7 7 7 7 6 6 7 9 7 7 8 8 8 7 8 8 7 7 7 7 6 6 6 7 7 7 7 7 8 7 7 7 6 6 5 5 6 6 6 6
10 9 9 8 8 7 7 7 6 6 7 8 8 9 8 8 8 8 8 8 8 8 8 7 7 7 7 7 7 7 7 7 8 8 8 8 7 7 6 6 6 6 6
10 10 10 9 9 8 8 7 7 7 7 8 8 9 9 9 9 8 8 8 8 9 9 8 8 7 8 8 8 8 8 8 8 8 8 8 8 7 7 7 7 6 6
10 10 10 10 9 9 9 9 8 9 8 9 9 9 9 9 9 9 9 9 9 9 8 8 8 8 8 8 8 8 8 8 8 9 9 9 9 8 9 8 8 8 8
11 11 11 10 10 10 10 9 9 9 9 9 10 10 10 9 10 9 9 9 9 9 8 8 8 8 9 9 9 9 9 9 9 9 9 9 10 10 10 10 10 9 9
12 12 12 11 11 11 11 10 10 11 11 11 11 11 10 10 11 11 10 10 10 10 10 9 9 9 9 9 9 10 10 10 10 10 10 10 10 11 11 11 11 10 10
13 12 12 12 11 11 12 12 11 12 11 12 11 11 10 10 11 11 11 11 10 10 10 10 10 9 9 8 9 10 11 11 11 11 11 11 11 11 11 12 12 12 11
13 13 12 12 12 12 12 12 12 12 12 12 11 11 10 10 11 11 11 12 11 11 10 10 11 10 10 10 10 11 12 12 12 11 11 11 11 11 11 12 13 13 12
15 15 14 14 14 13 13 13 13 13 13 13 12 11 11 11 11 12 12 12 12 12 11 11 12 11 12 11 12 12 13 13 13 12 12 12 12 12 12 12 12 13 13
17 16 17 17 16 15 14 14 14 14 14 13 13 12 12 12 12 12 12 12 12 13 13 13 13 12 12 12 12 12 13 13 13 13 13 13 13 13 13 13 13 13 13
18 18 17 17 17 16 16 16 16 16 15 15 14 14 14 14 13 13 13 12 12 13 13 14 13 13 12 13 13 13 13 13 13 13 14 14 13 13 13 13 13 14 14
19 18 17 17 17 17 17 17 17 17 17 16 16 16 15 15 15 14 14 14 14 14 14 13 13 14 13 14 14 13 13 13 13 14 14 14 14 14 14 14 14 14 15
18 18 18 18 18 18 19 18 18 18 18 17 17 17 17 16 16 15 15 16 16 15 14 14 14 14 14 14 14 14 14 14 14 14 14 15 15 15 15 15 15 15 15
18 18 18 19 19 19 19 19 19 20 20 19 19 18 18 17 17 17 17 16 16 16 15 15 15 15 16 15 15 16 16 16 16 16 16 16 16 16 17 17 17 17 16
18 18 18 18 19 19 19 20 20 21 21 21 20 19 19 18 18 17 18 18 17 16 16 16 17 17 17 16 16 17 17 17 18 18 17 17 17 17 17 18 18 18 18
20 19 19 19 18 19 20 20 20 20 21 21 21 20 19 19 19 19 18 19 18 17 16 16 17 18 18 18 18 19 19 18 18 19 19 18 18 18 18 19 19 19 19
22 21 21 21 20 20 20 20 19 19 20 20 20 20 20 19 20 20 20 20 19 19 18 18 18 19 19 19 19 19 19 19 20 20 19 19 19 19 19 19 19 20 20
23 23 22 22 22 22 21 21 21 20 20 20 20 20 21 21 21 21 21 20 20 20 20 20 19 19 20 20 19 20 20 20 20 20 21 21 21 21 21 21 20 21 20
23 23 23 23 22 22 22 22 21 21 20 20 20 20 21 21 21 22 22 22 22 22 22 22 21 20 21 20 20 20 20 20 20 20 21 22 22 22 22 22 21 21 21
24 23 23 23 23 22 22 22 22 22 22 22 22 22 22 22 21 21 22 22 23 23 23 23 22 22 22 21 21 21 21 21 22 21 21 22 22 22 22 21 21 22 22
24 24 24 24 23 23 23 23 23 23 23 23 23 22 22 21 21 22 22 22 22 23 23 23 23 23 22 22 22 21 21 21 22 23 22 22 22 22 23 22 22 22 23
24 24 24 24 24 24 24 24 23 23 23 23 23 22 22 23 22 22 22 22 23 23 23 23 23 23 22 22 23 23 23 22 22 23 23 23 23 23 22 22 23 22 23
24 24 24 24 24 24 24 24 23 23 24 24 23 23 23 24 23 23 24 24 24 24 23 23 23 24 23 23 23 23 23 23 22 22 22 22 23 23 23 23 23 23 23
23 24 23 23 23 23 24 24 24 24 24 24 24 24 24 24 24 25 25 25 25 25 25 24 24 25 25 24 24 24 24 24 23 23 22 22 22 22 23 23 23 23 23
22 23 23 23 23 23 24 24 24 24 24 24 24 24 24 25 25 26 26 26 26 26 26 26 26 27 26 26 26 26 25 25 25 24 24 23 23 23 23 23 23 23 24
22 23 23 23 23 23 24 24 24 24 24 24 24 25 25 26 26 27 27 26 27 28 28 27 27 27 28 27 27 27 27 26 26 25 24 24 24 23 23 23 24 25 25

GEFSMA_500_meanwind_342.txt.gz
Wind_Speed
8 7 7 6 5 5 4 5 6 5 5 6 7 7 7 8 7 7 6 6 6 6 6 5 5 6 6 6 6 6 6 6 6 7 7 6 6 6 6 7 8 7 7
8 8 7 6 5 5 5 5 5 5 6 6 6 7 7 8 8 8 8 7 7 7 7 6 6 6 6 6 7 7 7 7 7 7 7 7 7 7 7 7 8 8 7
8 8 7 7 6 6 5 5 5 5 6 6 5 6 7 7 8 8 8 8 7 7 7 7 7 7 7 7 7 8 7 8 8 8 8 8 9 9 8 8 9 9 8
9 8 7 7 7 7 5 5 5 5 5 5 5 5 6 6 7 8 8 8 8 8 8 7 7 7 7 8 8 8 8 8 9 9 9 9 9 10 10 9 9 10 9
10 9 8 7 7 7 6 6 6 5 5 5 6 6 6 7 7 7 8 8 8 8 8 8 8 8 8 8 9 9 8 9 9 9 9 9 9 10 10 10 10 10 10
10 9 9 8 8 7 7 6 6 6 5 5 6 6 7 7 7 8 8 8 8 8 9 8 8 8 8 8 9 9 9 9 9 9 10 10 9 9 10 10 11 11 10
10 10 10 9 9 8 7 7 7 7 6 6 6 7 7 7 7 8 8 9 9 9 9 9 9 9 9 8 9 9 9 9 9 10 10 10 10 10 10 11 11 12 11
11 11 10 10 9 9 8 8 7 7 7 7 7 7 7 7 7 8 9 10 10 10 10 10 10 10 10 10 10 10 10 10 10 10 10 11 11 11 11 11 12 13 13
12 12 11 11 11 10 9 9 8 8 8 8 8 8 8 8 8 8 9 10 11 11 11 11 11 11 11 11 11 10 10 11 11 12 11 11 11 11 11 12 12 12 12
13 13 13 12 12 12 11 10 10 10 9 9 9 9 9 9 9 9 10 10 11 12 12 12 12 12 12 12 12 12 11 12 12 12 12 12 12 12 12 12 12 12 12
14 14 14 13 13 13 12 12 11 11 11 10 10 11 11 11 11 11 11 12 12 12 12 12 12 13 12 12 12 13 13 13 13 13 13 12 12 12 12 12 12 13 12
15 14 14 14 14 13 13 13 13 12 12 11 11 12 12 12 12 12 13 13 13 13 13 13 13 13 13 14 13 13 13 13 14 14 14 14 13 14 14 14 14 14 14
15 14 14 14 14 14 14 14 14 14 13 13 13 13 13 13 14 14 14 14 14 14 14 14 13 13 14 14 14 14 13 14 14 15 15 15 15 15 15 15 15 15 15
15 15 15 15 14 13 14 15 15 14 14 14 14 14 15 15 15 15 15 15 14 14 14 14 14 14 14 15 15 15 15 15 16 16 15 16 16 17 17 17 16 16 16
17 16 16 16 15 15 15 15 16 15 15 15 15 15 15 15 15 15 16 16 15 15 15 15 15 15 15 16 16 16 16 16 17 17 17 16 16 17 18 17 18 17 17
18 17 17 17 17 17 17 17 17 16 16 17 17 17 16 17 17 17 16 16 16 16 16 16 17 17 16 16 17 17 17 17 17 18 18 17 17 17 17 18 18 18 19
19 18 17 17 17 18 19 18 18 18 18 18 18 18 17 17 18 18 18 17 17 17 17 17 18 18 17 17 17 17 18 17 18 18 18 18 18 19 19 20 20 20 20
19 19 18 18 18 18 19 19 19 19 19 19 18 18 18 19 19 19 19 19 19 18 18 18 18 19 18 18 18 18 18 18 18 18 19 19 20 21 21 21 21 20 21
20 20 19 19 19 19 19 20 20 20 19 19 19 19 19 19 19 19 20 20 20 20 20 19 19 19 19 19 19 19 18 18 18 18 19 19 21 21 21 22 22 22 22
20 20 20 20 20 20 20 20 20 20 20 20 20 20 20 20 19 19 20 20 21 21 21 21 21 21 20 20 20 20 20 19 19 19 19 20 20 20 20 21 22 22 23
19 20 20 20 20 20 21 21 21 21 21 21 20 20 20 20 20 20 21 21 21 21 21 21 21 22 21 21 21 21 21 20 20 20 20 20 21 21 21 21 21 21 22
20 20 20 20 20 20 21 21 21 21 21 20 20 20 21 21 21 22 22 22 22 22 22 22 21 22 21 21 21 21 21 21 21 21 21 21 22 22 22 21 21 22 23
21 20 19 19 20 20 20 20 20 20 20 20 20 20 20 22 22 22 23 23 23 23 23 22 23 23 23 23 23 22 22 22 22 22 22 21 22 21 22 22 22 22 23
22 20 20 20 20 20 20 21 20 21 21 21 21 20 21 21 22 23 23 24 23 23 23 23 23 23 23 24 24 23 23 24 24 23 23 22 22 22 23 22 21 22 22
21 21 20 20 20 20 21 21 21 21 21 21 21 21 22 22 22 23 24 24 23 23 24 24 24 25 25 25 25 25 25 25 25 25 24 24 23 24 24 23 23 23 24
21 20 19 20 20 20 20 21 21 21 21 21 22 22 22 23 22 23 23 24 24 24 24 25 25 26 26 26 26 26 26 26 26 26 26 26 26 25 25 25 25 25 25

GEFSMA_500_meanwind_348.txt.gz
Wind_Speed
7 7 5 4 4 3 3 3 4 4 5 5 5 5 6 6 5 6 6 7 7 7 7 6 6 6 7 7 7 7 7 7 7 8 8 7 7 7 7 8 8 8 8
7 7 6 4 4 3 3 4 4 4 5 5 5 6 7 7 6 6 7 7 7 8 7 7 7 8 7 7 7 7 8 7 8 8 8 8 8 8 8 8 8 8 8
7 7 7 4 4 4 4 4 4 5 5 4 4 5 7 7 7 8 8 8 8 8 7 7 8 8 7 7 7 8 9 8 8 8 8 8 9 9 9 8 8 8 9
7 7 7 5 5 4 5 5 5 5 5 6 5 6 7 7 7 8 8 8 8 8 8 8 8 8 8 8 8 9 9 9 9 9 8 9 9 8 9 8 8 8 9
8 8 8 7 6 6 5 5 6 6 6 6 7 7 6 7 7 8 8 8 8 9 8 9 9 9 9 9 9 9 9 10 10 10 10 10 10 9 9 9 8 8 9
8 8 8 7 7 6 6 5 6 6 7 7 7 7 7 7 7 7 7 8 8 8 9 9 10 10 10 10 10 10 10 11 11 10 11 11 10 10 10 10 10 10 10
9 8 8 7 7 7 6 6 6 6 7 8 8 8 7 7 7 7 7 7 8 8 9 9 10 10 10 10 10 11 11 11 11 11 11 11 11 10 10 11 11 10 10
10 9 9 8 8 7 8 8 8 7 7 8 8 8 8 8 8 9 8 8 8 9 9 10 10 10 11 11 11 11 11 11 11 11 11 12 12 12 12 12 12 12 11
11 10 10 10 9 9 9 9 9 9 9 9 9 9 9 9 9 9 9 10 10 9 10 10 11 11 11 12 12 12 12 11 12 12 11 11 12 12 12 12 12 12 12
12 12 12 11 11 10 10 10 10 10 10 10 10 10 10 10 10 10 10 10 11 11 10 11 12 12 12 13 14 13 13 13 13 12 12 12 12 13 13 13 14 14 13
13 13 13 13 12 11 11 11 11 11 11 11 11 11 10 11 11 11 11 11 12 12 12 12 12 12 13 13 14 14 14 14 13 13 13 13 13 13 14 14 14 15 14
14 13 13 14 14 13 13 13 12 12 12 13 13 12 12 12 11 11 12 12 13 13 13 13 13 13 13 13 14 14 15 14 14 14 14 15 15 15 15 15 15 15 15
15 15 14 15 15 15 15 14 13 13 13 14 14 13 13 13 13 13 13 14 14 14 14 14 14 14 15 14 14 14 15 15 15 15 15 15 16 16 16 15 15 15 15
16 16 15 16 16 15 15 15 14 14 14 14 14 15 15 14 14 15 15 15 15 15 15 15 15 15 15 15 15 15 16 16 16 17 17 16 16 17 17 16 17 16 16
17 17 17 17 17 17 16 15 15 15 15 15 15 16 16 16 15 15 16 16 16 16 16 16 17 17 17 16 16 16 16 16 17 17 18 17 17 18 18 18 18 18 17
19 19 19 18 18 18 17 17 16 16 17 17 16 16 16 16 16 16 16 16 17 17 17 17 18 19 18 18 17 17 18 17 18 18 18 18 18 18 18 19 20 19 18
21 21 20 20 19 18 18 18 18 18 18 18 17 17 17 17 18 18 18 18 18 18 18 19 19 19 19 19 19 19 19 19 18 19 19 19 19 19 19 20 20 20 20
21 21 22 22 21 20 20 19 19 19 19 19 19 19 18 18 19 19 19 19 19 19 19 19 20 21 21 21 20 20 20 20 20 20 20 20 20 20 20 20 20 21 21
23 22 22 23 22 22 22 21 21 21 21 20 20 20 20 20 20 21 21 20 20 20 20 20 21 21 22 22 22 22 22 21 21 21 21 21 21 21 20 21 21 21 21
23 23 23 23 24 24 23 22 22 22 22 22 21 22 22 22 22 22 22 22 21 21 21 20 20 21 21 22 22 22 22 22 22 22 22 22 22 21 21 21 22 21 21
23 23 23 23 23 23 22 22 22 22 22 22 22 22 22 22 23 23 23 23 22 22 22 22 21 21 22 22 22 22 23 22 22 23 23 23 23 22 22 22 22 23 23
22 23 23 23 23 22 22 22 22 22 22 22 22 22 22 23 23 23 23 23 23 23 24 23 23 23 23 23 23 23 23 23 23 23 24 24 24 23 23 22 23 23 23
23 22 22 22 22 22 23 23 22 23 23 23 22 23 23 23 24 24 24 24 25 25 25 25 24 24 24 24 24 24 24 24 24 24 24 23 23 24 24 23 23 24 24
23 23 23 23 22 21 22 23 23 23 23 23 23 23 24 24 24 24 24 24 24 25 25 25 25 25 25 25 25 25 25 25 25 25 24 23 23 24 24 25 24 24 25
23 23 24 23 22 22 22 21 22 22 23 24 24 24 24 24 24 24 23 23 24 24 24 25 26 26 26 26 27 27 26 26 25 26 25 25 25 25 26 26 26 26 26
22 22 23 23 22 22 22 22 22 22 22 22 23 23 23 22 22 23 23 23 23 23 24 26 26 26 27 27 28 28 28 27 27 27 27 27 27 27 27 27 28 28 28

GEFSMA_500_meanwind_354.txt.gz
Wind_Speed
3 3 3 2 2 3 3 4 4 4 5 5 5 6 6 6 6 7 7 7 7 7 7 7 8 8 8 8 8 8 8 8 8 8 8 8 8 8 8 9 8 9 9
4 4 4 3 3 4 4 4 5 5 6 5 6 6 6 7 6 7 7 8 8 8 8 8 8 8 8 8 8 8 8 8 8 8 8 8 7 8 8 9 9 9 9
4 4 4 4 4 5 5 5 5 6 6 6 7 8 7 7 8 7 7 8 9 8 8 8 8 8 9 9 9 8 8 8 9 8 9 8 8 8 8 9 9 9 9
5 5 4 5 5 5 5 5 5 6 7 7 8 8 8 8 8 7 8 8 9 9 9 9 8 9 9 9 9 9 8 8 9 9 10 9 9 9 9 9 9 10 10
6 6 5 6 6 6 6 6 6 6 7 8 9 9 8 9 9 8 8 9 9 10 10 9 9 9 10 9 9 9 10 9 9 10 11 10 10 10 10 10 10 10 11
7 7 7 7 7 7 7 7 7 7 7 8 8 9 9 10 9 9 9 9 10 10 11 10 10 10 11 11 10 10 11 10 10 10 11 11 11 11 11 11 12 12 11
8 8 8 8 8 8 9 9 9 8 8 8 9 9 9 10 10 9 9 9 9 10 10 11 11 11 11 12 12 12 12 11 11 10 11 12 11 11 11 11 12 11 11
10 9 9 9 9 9 10 10 11 10 10 9 10 10 10 10 10 10 11 11 11 10 11 12 12 12 12 12 13 13 12 12 12 11 10 11 11 11 12 12 11 11 11
11 11 10 10 10 11 11 11 12 12 11 11 11 11 11 11 11 11 11 12 12 11 11 11 11 12 13 13 13 13 13 13 12 12 11 12 11 11 12 13 13 13 12
13 13 12 12 12 12 12 12 11 13 13 13 12 12 12 12 12 13 13 13 13 13 12 12 12 12 13 13 13 13 14 13 13 13 12 12 12 12 13 13 13 13 13
13 13 13 13 13 13 13 13 12 12 13 13 13 13 13 13 13 13 14 14 14 14 13 13 13 13 13 13 13 13 13 14 14 14 13 14 14 14 13 12 13 13 14
14 14 14 15 15 14 14 14 13 12 13 13 13 13 13 13 14 14 15 15 16 15 15 15 14 14 14 14 15 14 14 15 15 14 14 14 14 14 15 15 15 14 14
15 15 16 16 15 15 15 15 15 14 14 13 13 13 14 14 14 14 15 15 15 16 16 16 15 15 15 15 15 15 14 14 14 15 15 15 15 15 15 15 15 16 15
17 17 17 17 16 17 16 17 16 16 15 15 15 15 15 14 14 15 14 14 15 15 16 16 16 16 15 15 16 16 15 15 16 16 16 16 16 16 15 15 16 16 16
18 18 18 18 17 17 17 17 17 17 16 16 16 16 16 15 15 15 15 15 15 15 16 16 17 17 16 16 16 17 17 17 17 17 17 17 17 17 17 17 18 18 18
19 19 20 19 19 19 18 18 18 19 18 18 17 17 17 17 17 16 16 17 17 16 16 17 17 18 18 18 18 18 18 18 18 18 18 18 19 19 19 19 19 20 20
21 20 20 21 21 21 21 20 21 20 19 19 19 18 18 18 18 18 18 18 18 18 18 18 18 19 19 19 19 19 20 20 20 20 20 20 20 20 20 20 20 21 21
22 23 23 23 23 22 22 22 21 21 21 20 20 20 19 19 19 20 20 20 19 19 20 20 20 20 20 21 21 21 21 21 21 21 21 22 22 21 21 21 21 21 21
24 24 25 25 24 24 23 23 22 22 22 21 21 21 21 21 21 21 21 21 21 21 21 21 21 21 21 21 21 22 22 22 22 22 22 22 23 23 22 22 22 22 22
24 25 25 25 25 25 24 24 24 23 23 23 23 23 22 22 22 22 22 22 22 22 22 22 22 22 22 22 22 22 23 23 23 23 23 23 23 23 23 22 22 23 23
24 24 24 24 25 25 25 24 24 24 24 24 23 23 24 24 23 23 23 23 23 23 23 23 22 23 23 23 23 23 24 24 24 24 24 24 24 24 23 23 23 23 23
23 24 24 24 25 25 25 25 25 24 24 24 24 24 24 24 24 24 24 24 23 23 23 23 23 23 24 24 24 24 24 24 25 25 25 24 24 24 23 23 23 24 24
23 23 23 24 24 25 25 25 25 25 24 24 24 25 25 25 25 25 25 24 24 24 24 24 24 24 24 24 24 25 24 25 25 25 25 25 25 25 25 24 24 25 25
23 23 23 24 24 24 25 25 24 25 25 25 26 26 26 26 25 25 25 25 25 25 25 24 24 24 25 25 25 25 25 25 26 26 26 26 26 26 26 26 26 27 27
22 22 23 24 24 25 25 25 25 25 26 26 27 26 26 26 26 26 25 25 25 25 24 24 24 25 26 26 26 26 26 26 27 27 27 27 27 27 27 28 28 28 28
21 21 22 23 24 24 24 24 24 25 26 26 26 27 26 26 26 26 26 25 26 26 25 25 25 25 25 26 27 27 27 28 28 28 28 28 28 29 29 29 29 30 30